Flight Track Log - Related Links

Times and Time Zones

All times are in EDT time to prevent confusion due to time zone crossing. See the N700QA flight status page for this flight to view local times or setup timezone preferences in your user account.

Time Position Orientation Groundspeed Altitude Reporting Facility
EDT Latitude Longitude Course Direction KTS MPH feet Rate Location/Type
Sun 08:21:07 PM 29.6464 -95.3428 271° West 183 211 3,100  Level Houston Center
Sun 08:22:08 PM 29.6983 -95.4042 314° West 254 292 5,600 2,177 Climbing Houston Center
Sun 08:23:11 PM 29.7481 -95.4514 320° Northwest 259 298 7,600 2,064 Climbing Houston Center
Sun 08:24:13 PM 29.8064 -95.5117 318° Northwest 278 320 9,900 2,661 Climbing Houston Center
Sun 08:25:15 PM 29.8425 -95.5947 297° West 245 282 13,100 2,439 Climbing Houston Center
Sun 08:26:16 PM 29.8567 -95.6686 282° West 240 276 14,900 1,561 Climbing Houston Center
Sun 08:27:18 PM 29.8700 -95.7456 281° West 241 277 16,300 1,452 Climbing Houston Center
Sun 08:28:20 PM 29.8864 -95.8300 283° West 263 303 17,900 1,935 Climbing Houston Center
Sun 08:29:22 PM 29.9019 -95.9114 282° West 265 305 20,300 1,935 Climbing Houston Center
Sun 08:30:24 PM 29.9153 -95.9875 281° West 249 287 21,900 1,258 Climbing Houston Center
Sun 08:31:26 PM 29.9308 -96.0753 282° West 249 287 22,900 927 Climbing Houston Center
Sun 08:32:27 PM 29.9333 -96.1614 272° West 267 307 23,800 878 Climbing Houston Center
Sun 08:33:29 PM 29.9375 -96.2506 273° West 276 318 24,700 1,065 Climbing Houston Center
Sun 08:34:31 PM 29.9550 -96.3506 281° West 288 331 26,000 1,355 Climbing Houston Center
Sun 08:35:33 PM 29.9811 -96.4478 287° West 290 334 27,500 1,161 Climbing Houston Center
Sun 08:36:35 PM 29.9989 -96.5331 284° West 281 323 28,400 683 Climbing Houston Center
Sun 08:37:36 PM 30.0178 -96.6233 284° West 288 331 28,900 634 Climbing Houston Center
Sun 08:38:38 PM 30.0400 -96.7167 285° West 299 344 29,700 1,161 Climbing Houston Center
Sun 08:39:40 PM 30.0603 -96.8072 285° West 294 338 31,300 1,355 Climbing Houston Center
Sun 08:40:42 PM 30.0772 -96.8872 284° West 265 305 32,500 829 Climbing Houston Center
Sun 08:41:43 PM 30.0986 -96.9842 284° West 263 303 33,000 244 Climbing Houston Center
Sun 08:42:45 PM 30.1169 -97.0675 284° West 266 306 33,000 48 Level Houston Center
Sun 08:43:47 PM 30.1372 -97.1569 285° West 284 327 33,100 48 Climbing Houston Center
Sun 08:44:49 PM 30.1589 -97.2494 285° West 295 339 33,100  Level Houston Center
Sun 08:45:51 PM 30.1778 -97.3444 283° West 303 349 33,100 390 Level Houston Center
Sun 08:46:52 PM 30.1997 -97.4397 285° West 307 353 33,900 1,073 Climbing Houston Center
Sun 08:47:54 PM 30.2214 -97.5414 284° West 275 316 35,300 823 Climbing Houston Center
Sun 08:48:56 PM 30.2389 -97.6219 284° West 264 304 35,600 339 Climbing Houston Center
Sun 08:49:58 PM 30.2569 -97.7008 285° West 256 295 36,000 194 Climbing Houston Center
Sun 08:51:00 PM 30.2742 -97.7811 284° West 257 296 36,000  Level Houston Center
Sun 08:52:01 PM 30.2925 -97.8631 285° West 261 300 36,000  Level Houston Center
Sun 08:53:03 PM 30.3142 -97.9636 284° West 273 314 36,000  Level Houston Center
Sun 08:54:05 PM 30.3328 -98.0542 283° West 277 319 36,000  Level Houston Center
Sun 08:55:06 PM 30.3464 -98.1431 280° West 282 325 36,000  Level Houston Center
Sun 08:56:08 PM 30.3386 -98.2283 264° West 268 308 36,000  Level Houston Center
Sun 08:57:10 PM 30.3289 -98.3144 263° West 269 310 36,000  Level Houston Center
Sun 08:58:12 PM 30.3222 -98.4006 265° West 271 312 36,000  Level Houston Center
Sun 08:59:14 PM 30.3150 -98.4978 265° West 271 312 36,000  Level Houston Center
Sun 09:00:15 PM 30.3061 -98.5911 264° West 272 313 36,000  Level Houston Center
Sun 09:01:17 PM 30.2967 -98.6797 263° West 275 316 36,000 48 Level Houston Center
Sun 09:02:19 PM 30.2875 -98.7742 264° West 275 316 36,100 48 Climbing Houston Center
Sun 09:03:21 PM 30.2797 -98.8633 264° West 277 319 36,100  Level Houston Center
Sun 09:04:22 PM 30.2722 -98.9522 264° West 277 319 36,100 -49 Level Houston Center
Sun 09:05:24 PM 30.2622 -99.0494 263° West 280 322 36,000 -48 Descending Houston Center
Sun 09:06:26 PM 30.2572 -99.1364 266° West 281 323 36,000  Level Houston Center
Sun 09:07:27 PM 30.2481 -99.2275 263° West 283 326 36,000 49 Level Houston Center
Sun 09:08:29 PM 30.2364 -99.3194 262° West 286 329 36,100 48 Climbing Houston Center
Sun 09:09:31 PM 30.2236 -99.4119 261° West 287 330 36,100  Level Houston Center
Sun 09:10:32 PM 30.2083 -99.5047 259° West 289 333 36,100  Level Houston Center
Sun 09:11:34 PM 30.1944 -99.5986 260° West 293 337 36,100  Level Houston Center
Sun 09:12:36 PM 30.2011 -99.7128 274° West 303 349 36,100  Level Houston Center
Sun 09:13:37 PM 30.2247 -99.8111 286° West 314 361 36,100  Level Houston Center
Sun 09:14:39 PM 30.2503 -99.9111 287° West 320 368 36,100  Level Houston Center
Sun 09:15:41 PM 30.2792 -100.0131 288° West 331 381 36,100  Level Houston Center
Sun 09:16:42 PM 30.3067 -100.1142 288° West 333 383 36,100  Level Houston Center
Sun 09:17:44 PM 30.3333 -100.2147 287° West 333 383 36,100  Level Houston Center
Sun 09:18:46 PM 30.3672 -100.3369 288° West 336 387 36,100 -49 Level Houston Center
Sun 09:19:47 PM 30.4142 -100.4342 299° West 357 411 36,000 -49 Descending Houston Center
Sun 09:20:49 PM 30.4703 -100.5292 304° West 360 414 36,000  Level Houston Center
Sun 09:21:50 PM 30.5250 -100.6239 304° West 358 412 36,000  Level Houston Center
Sun 09:22:52 PM 30.5756 -100.7217 301° West 357 411 36,000  Level Houston Center
Sun 09:23:53 PM 30.6278 -100.8181 302° West 357 411 36,000 -49 Level Houston Center
Sun 09:24:55 PM 30.6956 -100.9325 305° West 358 412 35,900  Descending Houston Center
Sun 09:25:56 PM 30.7247 -101.0378 288° West 353 406 36,000  Climbing Houston Center
Sun 09:26:58 PM 30.7450 -101.1431 283° West 342 394 35,900 -49 Descending Houston Center
Sun 09:27:59 PM 30.7706 -101.2483 286° West 340 391 35,900  Level Houston Center
Sun 09:29:01 PM 30.7958 -101.3511 286° West 339 390 35,900  Level Houston Center
Sun 09:30:02 PM 30.8206 -101.4561 285° West 338 389 35,900  Level Houston Center
Sun 09:31:04 PM 30.8453 -101.5636 285° West 338 389 35,900 49 Level Houston Center
Sun 09:32:05 PM 30.8683 -101.6728 284° West 342 394 36,000 49 Climbing Houston Center
Sun 09:33:07 PM 30.8989 -101.8042 285° West 347 399 36,000  Level Houston Center
Sun 09:34:08 PM 30.9239 -101.9131 285° West 348 400 36,000  Level Houston Center
Sun 09:35:10 PM 30.9481 -102.0225 284° West 348 400 36,000  Level Houston Center
Sun 09:36:11 PM 30.9719 -102.1308 284° West 346 398 36,000  Level Houston Center
Sun 09:37:03 PM 30.9944 -102.2200 286° West 347 399 36,000  Level Albuquerque Center
Sun 09:38:05 PM 31.0283 -102.3306 290° West 355 409 36,000 -49 Level Albuquerque Center
Sun 09:39:06 PM 31.0592 -102.4378 289° West 355 409 35,900  Descending Albuquerque Center
Sun 09:40:07 PM 31.0906 -102.5450 289° West 354 407 36,000 49 Climbing Albuquerque Center
Sun 09:41:09 PM 31.1217 -102.6539 288° West 350 403 36,000  Level Albuquerque Center
Sun 09:42:10 PM 31.1533 -102.7631 289° West 351 404 36,000  Level Albuquerque Center
Sun 09:43:11 PM 31.1906 -102.8939 288° West 351 404 36,000  Level Albuquerque Center
Sun 09:44:13 PM 31.2214 -103.0036 288° West 352 405 36,000  Level Albuquerque Center
Sun 09:45:14 PM 31.2528 -103.1133 289° West 354 407 36,000  Level Albuquerque Center
Sun 09:46:15 PM 31.2822 -103.2242 287° West 357 411 36,000  Level Albuquerque Center
Sun 09:47:17 PM 31.3150 -103.3344 289° West 357 411 36,000 -49 Level Albuquerque Center
Sun 09:48:18 PM 31.3458 -103.4450 288° West 357 411 35,900  Descending Albuquerque Center
Sun 09:49:19 PM 31.3747 -103.5567 287° West 358 412 36,000 49 Climbing Albuquerque Center
Sun 09:50:20 PM 31.4067 -103.6681 289° West 359 413 36,000 -49 Level Albuquerque Center
Sun 09:51:22 PM 31.4425 -103.7975 288° West 362 417 35,900  Descending Albuquerque Center
Sun 09:52:23 PM 31.4692 -103.8944 288° West 363 418 36,000 49 Climbing Albuquerque Center
Sun 09:53:24 PM 31.5053 -104.0239 288° West 365 420 36,000  Level Albuquerque Center
Sun 09:54:26 PM 31.5372 -104.1364 288° West 365 420 36,000  Level Albuquerque Center
Sun 09:55:28 PM 31.5672 -104.2494 287° West 365 420 36,000  Level Albuquerque Center
Sun 09:56:28 PM 31.5992 -104.3622 288° West 365 420 36,000  Level Albuquerque Center
Sun 09:57:29 PM 31.6300 -104.4747 288° West 365 420 36,000  Level Albuquerque Center
Sun 09:58:31 PM 31.6614 -104.5878 288° West 365 420 36,000  Level Albuquerque Center
Sun 09:59:32 PM 31.6975 -104.7242 287° West 366 421 36,000  Level Albuquerque Center
Sun 10:00:33 PM 31.7292 -104.8386 288° West 366 421 36,000  Level Albuquerque Center
Sun 10:01:35 PM 31.7594 -104.9533 287° West 368 423 36,000 98 Level Albuquerque Center
Sun 10:02:36 PM 31.7903 -105.0700 287° West 371 427 36,200 393 Climbing Albuquerque Center
Sun 10:03:37 PM 31.8206 -105.1833 287° West 370 426 36,800 634 Climbing Albuquerque Center
Sun 10:04:39 PM 31.8492 -105.2925 287° West 358 412 37,500 390 Climbing Albuquerque Center
Sun 10:05:40 PM 31.8767 -105.4000 287° West 349 402 37,600 -148 Climbing Albuquerque Center
Sun 10:06:41 PM 31.9053 -105.5089 287° West 348 400 37,200 195 Descending Albuquerque Center
Sun 10:07:43 PM 31.9400 -105.6403 287° West 352 405 38,000 341 Climbing Albuquerque Center
Sun 10:08:44 PM 31.9669 -105.7464 287° West 343 395 37,900  Descending Albuquerque Center
Sun 10:09:45 PM 31.9950 -105.8542 287° West 343 395 38,000 49 Climbing Albuquerque Center
Sun 10:10:47 PM 32.0236 -105.9633 287° West 345 397 38,000 -49 Level Albuquerque Center
Sun 10:11:48 PM 32.0525 -106.0736 287° West 350 403 37,900  Descending Albuquerque Center
Sun 10:12:49 PM 32.0814 -106.1850 287° West 353 406 38,000 49 Climbing Albuquerque Center
Sun 10:13:51 PM 32.1103 -106.2981 287° West 357 411 38,000  Level Albuquerque Center
Sun 10:14:52 PM 32.1392 -106.4122 287° West 363 418 38,000  Level Albuquerque Center
Sun 10:15:53 PM 32.1681 -106.5267 287° West 365 420 38,000  Level Albuquerque Center
Sun 10:16:54 PM 32.2036 -106.6644 287° West 366 421 38,000  Level Albuquerque Center
Sun 10:17:56 PM 32.2328 -106.7800 287° West 367 422 38,000  Level Albuquerque Center
Sun 10:18:57 PM 32.2633 -106.9017 287° West 368 423 38,000  Level Albuquerque Center
Sun 10:19:58 PM 32.2928 -107.0189 287° West 372 428 38,000  Level Albuquerque Center
Sun 10:20:59 PM 32.3231 -107.1364 287° West 373 429 38,000  Level Albuquerque Center
Sun 10:22:01 PM 32.3469 -107.2583 283° West 388 447 38,000  Level Albuquerque Center
Sun 10:23:02 PM 32.3761 -107.3781 286° West 387 445 38,000  Level Albuquerque Center
Sun 10:24:03 PM 32.4061 -107.4997 286° West 385 443 38,000  Level Albuquerque Center
Sun 10:25:05 PM 32.4394 -107.6272 287° West 386 444 38,000  Level Albuquerque Center
Sun 10:26:06 PM 32.4689 -107.7486 286° West 386 444 38,000 49 Level Albuquerque Center
Sun 10:27:07 PM 32.4961 -107.8631 286° West 386 444 38,100  Climbing Albuquerque Center
Sun 10:28:09 PM 32.5314 -108.0092 286° West 386 444 38,000 -49 Descending Albuquerque Center
Sun 10:29:10 PM 32.5614 -108.1286 287° West 384 442 38,000  Level Albuquerque Center
Sun 10:30:11 PM 32.5889 -108.2503 285° West 383 441 38,000  Level Albuquerque Center
Sun 10:31:13 PM 32.6175 -108.3708 286° West 383 441 38,000  Level Albuquerque Center
Sun 10:32:14 PM 32.6447 -108.4906 285° West 381 438 38,000  Level Albuquerque Center
Sun 10:33:15 PM 32.6739 -108.6097 286° West 379 436 38,000  Level Albuquerque Center
Sun 10:34:17 PM 32.7014 -108.7294 285° West 377 434 38,000 49 Level Albuquerque Center
Sun 10:35:18 PM 32.7319 -108.8533 286° West 375 432 38,100  Climbing Albuquerque Center
Sun 10:36:19 PM 32.7606 -108.9703 286° West 371 427 38,000 -49 Descending Albuquerque Center
Sun 10:37:21 PM 32.7844 -109.0875 284° West 369 425 38,000  Level Albuquerque Center
Sun 10:38:22 PM 32.8106 -109.2053 285° West 368 423 38,000  Level Albuquerque Center
Sun 10:39:23 PM 32.8378 -109.3247 285° West 368 423 38,000  Level Albuquerque Center
Sun 10:40:25 PM 32.8708 -109.4664 286° West 369 425 38,000 49 Level Albuquerque Center
Sun 10:41:26 PM 32.8978 -109.5842 285° West 369 425 38,100 49 Climbing Albuquerque Center
Sun 10:42:27 PM 32.9242 -109.6997 285° West 366 421 38,100 -49 Level Albuquerque Center
Sun 10:43:29 PM 32.9503 -109.8153 285° West 365 420 38,000 -49 Descending Albuquerque Center
Sun 10:44:30 PM 32.9758 -109.9303 285° West 361 415 38,000  Level Albuquerque Center
Sun 10:45:31 PM 33.0019 -110.0453 285° West 360 414 38,000 49 Level Albuquerque Center
Sun 10:46:33 PM 33.0275 -110.1592 285° West 360 414 38,100  Climbing Albuquerque Center
Sun 10:47:34 PM 33.0511 -110.2742 284° West 360 414 38,000  Descending Albuquerque Center
Sun 10:48:35 PM 33.0778 -110.3897 285° West 359 413 38,100 49 Climbing Albuquerque Center
Sun 10:49:37 PM 33.1081 -110.5292 285° West 360 414 38,100  Level Albuquerque Center
Sun 10:50:38 PM 33.1353 -110.6447 286° West 360 414 38,100  Level Albuquerque Center
Sun 10:51:39 PM 33.1625 -110.7647 285° West 360 414 38,100  Level Albuquerque Center
Sun 10:52:40 PM 33.1903 -110.8803 286° West 361 415 38,100  Level Albuquerque Center
Sun 10:53:42 PM 33.2167 -110.9969 285° West 361 415 38,100  Level Albuquerque Center
Sun 10:54:43 PM 33.2422 -111.1144 285° West 365 420 38,100  Level Albuquerque Center
Sun 10:55:44 PM 33.2681 -111.2317 285° West 365 420 38,100  Level Albuquerque Center
Sun 10:56:46 PM 33.2947 -111.3483 285° West 365 420 38,100  Level Albuquerque Center
Sun 10:57:47 PM 33.3219 -111.4636 286° West 363 418 38,100 -49 Level Albuquerque Center
Sun 10:58:48 PM 33.3481 -111.5928 284° West 362 417 38,000  Descending Albuquerque Center
Sun 10:59:49 PM 33.3719 -111.6972 285° West 362 417 38,100 49 Climbing Albuquerque Center
Sun 11:00:51 PM 33.3981 -111.8147 285° West 363 418 38,100 -49 Level Albuquerque Center
Sun 11:01:52 PM 33.4239 -111.9319 285° West 363 418 38,000 -49 Descending Albuquerque Center
Sun 11:02:53 PM 33.4575 -112.0706 286° West 362 417 38,000  Level Albuquerque Center
Sun 11:03:55 PM 33.4883 -112.1858 288° West 362 417 38,000 49 Level Albuquerque Center
Sun 11:04:56 PM 33.5175 -112.3033 287° West 363 418 38,100 49 Climbing Albuquerque Center
Sun 11:05:57 PM 33.5481 -112.4208 287° West 365 420 38,100  Level Albuquerque Center
Sun 11:06:59 PM 33.5781 -112.5389 287° West 367 422 38,100  Level Albuquerque Center
Sun 11:08:00 PM 33.6100 -112.6675 287° West 368 423 38,100  Level Albuquerque Center
Sun 11:09:01 PM 33.6394 -112.7856 287° West 368 423 38,100 -49 Level Albuquerque Center
Sun 11:10:02 PM 33.6672 -112.8944 287° West 370 426 38,000  Descending Albuquerque Center
Sun 11:11:04 PM 33.6981 -113.0128 287° West 370 426 38,100 49 Climbing Albuquerque Center
Sun 11:12:05 PM 33.7261 -113.1308 286° West 370 426 38,100  Level Albuquerque Center
Sun 11:13:07 PM 33.7628 -113.2736 287° West 370 426 38,100  Level Albuquerque Center
Sun 11:14:08 PM 33.7911 -113.3931 286° West 370 426 38,100  Level Albuquerque Center
Sun 11:15:09 PM 33.8214 -113.5133 287° West 371 427 38,100  Level Albuquerque Center
Sun 11:16:11 PM 33.8500 -113.6319 286° West 372 428 38,100  Level Albuquerque Center
Sun 11:17:12 PM 33.8792 -113.7517 286° West 372 428 38,100 -49 Level Albuquerque Center
Sun 11:18:13 PM 33.9053 -113.8711 285° West 371 427 38,000  Descending Albuquerque Center
Sun 11:19:15 PM 33.9161 -113.9981 276° West 376 433 38,100 49 Climbing Albuquerque Center
Sun 11:20:16 PM 33.9308 -114.1217 278° West 377 434 38,100  Level Albuquerque Center
Sun 11:21:18 PM 33.9464 -114.2519 278° West 377 434 38,100  Level Albuquerque Center
Sun 11:22:19 PM 33.9592 -114.3769 277° West 376 433 38,100  Level Albuquerque Center
Sun 11:23:20 PM 33.9739 -114.4997 278° West 375 432 38,100 -49 Level Albuquerque Center
Sun 11:24:22 PM 33.9917 -114.6472 278° West 374 430 38,000  Descending Albuquerque Center
Sun 11:25:47 PM 34.0103 -114.8233 277° West 375 432 38,100 41 Climbing Los Angeles Center
Sun 11:26:49 PM 34.0194 -114.9508 275° West 376 433 38,100 -48 Level Los Angeles Center
Sun 11:27:51 PM 34.0122 -115.0819 266° West 391 450 38,000  Descending Los Angeles Center
Sun 11:28:52 PM 34.0078 -115.2103 268° West 391 450 38,100 49 Climbing Los Angeles Center
Sun 11:29:54 PM 34.0064 -115.3378 269° West 386 444 38,100 -48 Level Los Angeles Center
Sun 11:30:56 PM 34.0033 -115.4667 268° West 386 444 38,000 -634 Descending Los Angeles Center
Sun 11:31:57 PM 33.9997 -115.6236 268° West 387 445 36,800 -1,073 Descending Los Angeles Center
Sun 11:32:59 PM 33.9956 -115.7561 268° West 393 452 35,800 -1,306 Descending Los Angeles Center
Sun 11:34:01 PM 33.9922 -115.8822 268° West 388 447 34,100 -1,610 Descending Los Angeles Center
Sun 11:35:02 PM 33.9878 -116.0050 268° West 376 433 32,500 -1,659 Descending Los Angeles Center
Sun 11:36:04 PM 33.9853 -116.1303 269° West 375 432 30,700 -1,694 Descending Los Angeles Center
Sun 11:37:06 PM 33.9800 -116.2553 267° West 375 432 29,000 -1,902 Descending Los Angeles Center
Sun 11:38:07 PM 33.9756 -116.3889 268° West 394 453 26,800 -2,146 Descending Los Angeles Center
Sun 11:39:09 PM 33.9703 -116.5556 268° West 411 473 24,600 -1,935 Descending Los Angeles Center
Sun 11:40:11 PM 33.9667 -116.6911 268° West 411 473 22,800 -1,854 Descending Los Angeles Center
Sun 11:41:12 PM 33.9628 -116.8258 268° West 407 468 20,800 -1,902 Descending Los Angeles Center
Sun 11:42:14 PM 33.9567 -116.9619 267° West 408 470 18,900 -1,756 Descending Los Angeles Center
Sun 11:43:15 PM 33.9517 -117.0983 268° West 408 470 17,200 -1,366 Descending Los Angeles Center
Sun 11:44:17 PM 33.9431 -117.2175 265° West 370 426 16,100 -1,452 Descending Los Angeles Center
Sun 11:45:19 PM 33.9303 -117.3483 263° West 333 383 14,200 -1,756 Descending Los Angeles Center
Sun 11:46:20 PM 33.9581 -117.4525 288° West 335 386 12,500 -1,024 Descending Los Angeles Center
Sun 11:47:22 PM 33.9914 -117.5478 293° West 318 366 12,100 -244 Descending Los Angeles Center
Sun 11:48:23 PM 34.0092 -117.6478 282° West 314 361 12,000 -488 Descending Los Angeles Center
Sun 11:49:25 PM 33.9975 -117.7481 262° West 312 359 11,100 -1,388 Descending Los Angeles Center
Sun 11:50:37 PM 33.9833 -117.8833 263° West 307 353 8,900 -1,818 Descending Southern California TRACON
Sun 11:51:37 PM 33.9833 -117.9833 270° West 255 293 7,100 -1,450 Descending Southern California TRACON
Sun 11:52:37 PM 33.9667 -118.0500 253° West 208 239 6,000 -1,200 Descending Southern California TRACON
Sun 11:53:37 PM 33.9667 -118.1167 270° West 208 239 4,700 -1,100 Descending Southern California TRACON
Sun 11:54:37 PM 33.9500 -118.1833 253° West 191 220 3,800 -923 Descending Southern California TRACON
Sun 11:55:34 PM 33.9517 -118.2333 272° West 191 220 2,900 -1,017 Descending Los Angeles Center
Sun 11:56:35 PM 33.9461 -118.2889 263° West 179 206 1,800 -976 Descending Los Angeles Center
Sun 11:57:37 PM 33.9417 -118.3389 264° West 164 189 900 -677 Descending Los Angeles Center
Sun 11:58:39 PM 33.9358 -118.3858 261° West 148 170 400 -484 Descending Los Angeles Center
Mon 12:00:00 AM 33.9333 -118.4000 270° West  Level FlightAware Approximate

Login

Don't have an account? Register now (free) for customized features, flight alerts, and more!